Piwigo.org

You are not logged in. (Register / Login)

Announcement

Topics related to [Tag] plugin

Topic Tags Replies Views Last post
Sticky
Sticky: Show tags block on all pages by JanisV
plugin, tags 6 4360 2015-01-08 08:04:05 by flop25
[Plugin] FacebookPlug by rub  [ 1 2 3 … 8 ]
plugin 108 35901 2017-09-10 21:56:52 by Adriel1087
configuration, error, installation, photo, plugin, privacy, users 0 65 2017-08-25 09:12:21 by Lorenzo4web
custom thumb, Extension, masonry, plugin 145 28845 2017-08-13 16:12:21 by eliz82
categories/albums, Extension, map, plugin 0 120 2017-08-06 17:35:41 by TBP
[Plugin] Protected Albums by unclvito  [ 1 2 3 … 5 ]
password, plugin, Protected Albums Plugin 67 27241 2017-07-31 05:13:42 by flop25
change, copyrights, plugin 3 557 2016-08-08 08:25:08 by tomass
migration, plugin 1 602 2016-05-31 20:57:21 by plg
categories/albums, disable, plugin 14 1799 2016-04-13 19:26:55 by Nomad
categories/albums, configuration, plugin, Share 2 862 2015-08-03 13:16:40 by Maria
2.7, piwigo, plugin 3 1037 2015-07-26 19:52:10 by sport
plugin, WordPress 0 706 2015-07-21 18:44:24 by Hinnerk1
Advanced MetaData, error, metadata, metadata:exif, metadata:iptc, plugin 14 6591 2015-04-10 12:31:54 by legramo
issues, plugin, theme 2 1112 2015-03-05 15:41:23 by plg
Event Cats, Extension, plugin 36 18368 2015-01-20 08:53:57 by r.orrison
configuration, Extensions, Maps&Earth, metadata, plugin 0 822 2015-01-19 16:42:18 by danibo
[plugin]Advanced Menu Manager by grum  [ 1 2 3 ]
plugin 35 16230 2015-01-17 08:53:24 by Pierpaolo
[Plugin] ContactForm by Criss  [ 1 2 3 ]
contact form, plugin 30 21847 2015-01-15 21:09:53 by Stormchaser
error, Language Switch, plugin 0 662 2014-12-18 20:00:01 by malachiel
hi-res images, permission, plugin 11 8303 2014-11-20 02:09:48 by sport
password, plugin, protect 1 1560 2014-10-27 10:12:11 by mistic100
configuration, instagram2piwigo, plugin 8 2377 2014-09-10 18:35:47 by Jibin
Flickr2Piwigo not working by seenandnotseen
Flickr, Flickr2Piwigo, plugin 6 2462 2014-08-19 22:59:40 by seenandnotseen
plugin 2 3336 2014-07-20 12:55:18 by matthys
plugin, twitter, Twitter Card 13 3096 2014-04-26 03:42:10 by umrysh
User delete photo by thijsverbeek
delete, installation, plugin, users 5 1976 2014-02-24 19:56:23 by ddtddt
Extended Description, plugin 3 1255 2014-02-07 08:40:38 by Gilles
2.1.6, community, error, plugin, users, web upload 1 2155 2014-02-05 11:46:12 by drmaemo
Extended Description, plugin 2 1080 2014-01-29 03:05:44 by Pavel
plugin 6 1467 2014-01-23 16:54:51 by Pelagis
categories/albums, integration, plugin, theme 29 6239 2013-11-26 22:18:21 by marjolein
Lightroom plug-in beta testing - invitation by alloyphoto  [ 1 2 3 … 23 ]
export, Lightroom, plugin 344 78356 2013-11-20 16:02:26 by alloyphoto
Tag Access Management by DavidDD
metadata:iptc, plugin, Tag Access Management, users 3 1549 2013-10-17 14:42:21 by freanki
Piwigo backup by Peter de Bruin
backup, plugin 5 3333 2013-09-11 19:28:52 by flop25
API, embedded videos, plugin 1 1119 2013-06-20 11:42:18 by mistic100
additional pages, categories/albums, error, mobile, plugin 7 3410 2013-05-27 01:10:45 by twphotouk
ApertureToPiwigo, export, plugin 1 1123 2013-05-10 23:16:38 by Serge
error, facebookplug, plugin 3 1921 2013-05-09 19:26:53 by ddtddt
contact form, error, plugin, social buttons 8 3552 2013-05-01 17:39:10 by twphotouk
development, plugin 2 1596 2013-04-09 07:59:17 by micah
plugin, Tag, User Tags 10 4532 2013-04-08 17:00:49 by nicolas
plugin, template 1 1180 2013-03-19 16:13:56 by flop25
migration, plugin, sound 3 1715 2013-03-16 12:38:28 by flop25
piwecard, plugin, subdirectory 2 1454 2013-02-17 19:24:26 by 57jgm
plugin 2 1263 2012-12-20 23:55:49 by Valeria
batch downloader, plugin 6 2317 2012-12-11 16:31:48 by blax
error, Grum, plugin, update 5 2558 2012-11-20 12:11:26 by Gust
Lightbox Plug-in Bug by robertmohr
bug, lightbox, plugin 1 1458 2012-11-18 21:46:02 by robertmohr
error, plugin, Preview 8 4147 2012-11-11 09:53:48 by ViPeR_930
error, favicon, plugin, web upload 2 1654 2012-11-09 18:48:57 by ddtddt

Board footer

Powered by FluxBB

github twitter facebook google+ newsletter Donate Piwigo.org © 2002-2017 · Contact